Home   Weather   Zermatt   Past weeks

Flag for Switzerland Past Weather in Zermatt, Valais, Switzerland — Yesterday and Last 2 Weeks

Now
23 °F

Clear.


Feels Like: N/A
Forecast: 14 / 37 °F
Wind: N/A

Location: Pian Rosa

Current Time: Dec 7, 2016 at 7:30:47 pm

Latest Report: Dec 7, 2016 at 5:55 pm


Visibility: 10 mi

Pressure: 30.54 "Hg (24.89 "Hg at 1604m altitude)

Humidity: 12%

Dew Point: -22 °F

Location of ZermattLocation

Past Weather in Zermatt — Graph

°F

Zermatt Temperature Yesterday

Maximum temperature yesterday: 19 °F (at 2:55 pm)
Minimum temperature yesterday: 16 °F (at 7:55 am)
Average temperature yesterday: 18 °F

High & Low Weather Summary for the Past Weeks

 TemperatureHumidityPressure
High27 °F (Dec 7, 1:55 pm)100% (Nov 22, 5:55 pm)30.54 "Hg (Nov 22, 5:55 pm)
Low12 °F (Nov 29, 7:55 am)10% (Dec 7, 1:55 pm)29.86 "Hg (Nov 28, 3:55 am)
Average20 °F38%30.13 "Hg
* Reported Nov 22 5:55 pm — Dec 7 5:55 pm, Zermatt, Weather by CustomWeather, © 2016

Note: Actual official high and low records may vary slightly from our data, if they occured in-between our weather recording intervals... More about our weather records

Advertising

Zermatt Weather History for the Previous 24 Hours

Scroll right to see more
 ConditionsComfort  
Time TempWeatherWind HumidityBarometerVisibility
5:55 pm
Wed, Dec 7
23 °FClear.N/A12%30.54 "Hg10 mi
4:55 pm23 °FClear.N/A12%30.54 "Hg10 mi
3:55 pm23 °FSunny.N/A12%30.54 "Hg10 mi
2:55 pm27 °FSunny.N/A10%30.54 "Hg10 mi
1:55 pm27 °FSunny.N/A10%30.51 "Hg10 mi
12:55 pm25 °FSunny.N/A11%30.51 "Hg10 mi
11:55 am25 °FSunny.N/A11%30.54 "Hg10 mi
10:55 am23 °FSunny.N/A12%30.51 "Hg10 mi
9:55 am21 °FSunny.N/A13%30.51 "Hg10 mi
8:55 am19 °FSunny.N/A14%30.48 "Hg10 mi
7:55 am19 °FClear.N/A14%30.45 "Hg10 mi
6:55 am19 °FClear.N/A14%30.45 "Hg10 mi
5:55 am19 °FClear.N/A14%30.45 "Hg10 mi
4:55 am19 °FClear.N/A14%30.42 "Hg10 mi
3:55 am19 °FClear.N/A14%30.42 "Hg10 mi
2:55 am19 °FClear.N/A14%30.42 "Hg10 mi
1:55 am18 °FClear.N/A15%30.42 "Hg10 mi
12:55 am19 °FClear.N/A14%30.42 "Hg10 mi
Weather by CustomWeather, © 2016

See weather overviewHow to use our weather pages